フルーエリング彗星

C/2019 D1 ( Flewelling )

English version
Home page
Updated on December 24, 2019

---------------------------------------------------------------------

・ プロフィール

発見日 2019年2月26日
発見光度 16.7等
発見者 Heather Flewelling (Asteroid Terrestrial-Impact Last Alert System (ATLAS) search program)

・ 写真集

・ 軌道要素

Epoch 2019 Apr. 27.0 TT = JDT 2458600.5
T 2019 May 11.84138 TT                                  Williams
q   1.5775536            (2000.0)            P               Q
z  +0.0072240      Peri.   70.47652     +0.40560033     +0.80114179
 +/-0.0000018      Node   231.71811     -0.89448716     +0.44696485
e   0.9886037      Incl.   34.09845     +0.18809860     +0.39798775
From 671 observations 2019 Feb. 27-Nov. 29, mean residual 0".5.

・ 星図

・ 光度変化

        m1 = 9.5 + 5 logΔ + 20.0 log r

---------------------------------------------------------------------

軌道要素はM.P.E.C. 2019-X94に掲載されたものです。
星図はステラナビゲータ Ver.10 (アストロアーツ) で作成したものです。
光度グラフはComet for Windowsで作成したものです。

---------------------------------------------------------------------

Copyright(C) Seiichi Yoshida (comet@aerith.net). All rights reserved.